Location: Newark
(44.6028°N, 124.0883°W)
Time: 21:29:39
(UTC+00:00)

A-11 Canister half - All Passes

Search period start: 20 October 2019 00:00
Search period end: 30 October 2019 00:00
Orbit: 1527 x 1682 km, 47.3° (Epoch: 20 October)

Date Brightness Start Highest point End Pass type
(mag) Time Alt. Az. Time Alt. Az. Time Alt. Az.
20 Oct - 01:31:25 10° SE 01:34:58 13° ESE 01:38:29 10° E daylight
20 Oct - 03:29:16 10° SSW 03:38:08 47° SE 03:46:51 10° ENE visible
20 Oct - 05:33:15 10° WSW 05:42:41 88° NNW 05:52:03 10° ENE visible
20 Oct - 07:38:46 10° W 07:48:07 77° N 07:57:31 10° E visible
20 Oct - 09:43:58 10° WNW 09:53:11 68° SSW 10:02:32 10° SE visible
20 Oct - 11:49:51 10° W 11:56:59 25° SW 12:04:12 10° S visible
21 Oct - 01:10:41 10° SE 01:13:27 12° ESE 01:16:12 10° ESE daylight
21 Oct - 03:07:45 10° SSW 03:16:34 45° SE 03:25:13 10° ENE visible
21 Oct - 05:11:36 10° WSW 05:21:03 89° NNW 05:30:25 10° ENE visible
21 Oct - 07:17:06 10° W 07:26:29 77° N 07:35:52 10° E visible
21 Oct - 09:22:21 10° WNW 09:31:35 70° SSW 09:40:56 10° SE visible
21 Oct - 11:28:08 10° W 11:35:25 27° SW 11:42:51 10° S visible
22 Oct - 00:50:20 10° SE 00:51:56 10° ESE 00:53:32 10° ESE daylight
22 Oct - 02:46:15 10° SSW 02:54:59 43° SE 03:03:34 10° ENE visible
22 Oct - 04:49:57 10° WSW 04:59:26 89° SSE 05:08:48 10° ENE visible
22 Oct - 06:55:27 10° W 07:04:50 77° N 07:14:12 10° E visible
22 Oct - 09:00:43 10° WNW 09:09:59 73° SSW 09:19:20 10° SE night (unlit)
22 Oct - 11:06:25 10° WNW 11:13:53 28° SW 11:21:28 10° S visible
23 Oct - 02:24:45 10° SSW 02:33:25 41° SE 02:41:55 10° ENE visible
23 Oct - 04:28:19 10° WSW 04:37:47 88° SSE 04:47:09 10° ENE visible
23 Oct - 06:33:48 10° W 06:43:11 76° N 06:52:33 10° E visible
23 Oct - 08:39:05 10° WNW 08:48:22 75° SSW 08:57:44 10° SE night (unlit)
23 Oct - 10:44:42 10° WNW 10:52:20 30° SW 11:00:04 10° S visible
24 Oct - 02:03:16 10° SSW 02:11:51 39° SE 02:20:15 10° ENE visible
24 Oct - 04:06:40 10° WSW 04:16:10 86° SSE 04:25:32 10° ENE visible
24 Oct - 06:12:08 10° W 06:21:32 76° N 06:30:54 10° E visible
24 Oct - 08:17:28 10° WNW 08:26:46 77° SSW 08:36:07 10° ESE night (unlit)
24 Oct - 10:23:00 10° WNW 10:30:46 31° SW 10:38:39 10° S night (unlit)
25 Oct - 01:41:47 10° SSW 01:50:17 37° SE 01:58:36 10° ENE visible
25 Oct - 03:45:03 10° WSW 03:54:33 84° SSE 04:03:54 10° ENE visible
25 Oct - 05:50:29 10° W 05:59:54 76° N 06:09:15 10° E visible
25 Oct - 07:55:50 10° WNW 08:05:09 79° SSW 08:14:31 10° ESE visible
25 Oct - 10:01:19 10° WNW 10:09:13 33° SW 10:17:14 10° SSE night (unlit)
26 Oct - 01:20:19 10° SSW 01:28:43 36° SE 01:36:56 10° ENE daylight
26 Oct - 03:23:24 10° WSW 03:32:56 82° SSE 03:42:17 10° ENE visible
26 Oct - 05:28:50 10° W 05:38:15 76° N 05:47:36 10° E visible
26 Oct - 07:34:12 10° WNW 07:43:32 81° SSW 07:52:54 10° ESE visible
26 Oct - 09:39:38 10° WNW 09:47:40 34° SW 09:55:48 10° SSE night (unlit)
27 Oct - 00:58:51 10° SSW 01:07:09 34° SE 01:15:15 10° ENE daylight
27 Oct - 03:01:46 10° WSW 03:11:18 80° SSE 03:20:40 10° ENE visible
27 Oct - 05:07:09 10° W 05:16:36 76° N 05:25:57 10° E visible
27 Oct - 07:12:34 10° WNW 07:21:56 83° SSW 07:31:17 10° ESE visible
27 Oct - 09:17:57 10° WNW 09:26:07 36° SW 09:34:21 10° SSE night (unlit)
28 Oct - 00:37:24 10° SSW 00:45:35 33° SE 00:53:35 10° ENE daylight
28 Oct - 02:40:09 10° WSW 02:49:42 78° SSE 02:59:02 10° ENE visible
28 Oct - 04:45:29 10° W 04:54:58 76° N 05:04:18 10° E visible
28 Oct - 06:50:56 10° WNW 07:00:19 85° SSW 07:09:40 10° ESE visible
28 Oct - 08:56:17 10° WNW 09:04:34 38° SW 09:12:54 10° SSE night (unlit)
29 Oct - 00:15:58 10° S 00:24:01 31° SE 00:31:54 10° ENE daylight
29 Oct - 02:18:31 10° WSW 02:28:05 76° SSE 02:37:25 10° ENE visible
29 Oct - 04:23:49 10° W 04:33:19 76° N 04:42:39 10° E visible
29 Oct - 06:29:17 10° WNW 06:38:41 86° SSW 06:48:03 10° ESE visible
29 Oct - 08:34:37 10° WNW 08:43:00 40° SW 08:51:26 10° SSE night (unlit)
